Total_Precipitation_Accumulation
0.46 0.67 0.74 0.61 0.44 0.38 0.36 0.47 0.18 0.06 0.11 0.19 0.23 0.25 0.50 0.44 0.38 0.30 0.25 0.18 0.28 0.28
0.32 0.44 0.58 0.70 0.81 0.93 1.26 1.03 0.49 0.07 0.12 0.16 0.11 0.09 0.10 0.07 0.17 0.54 0.34 0.26 0.39 0.41
0.07 0.04 0.02 0.07 0.20 0.40 0.62 0.61 0.36 0.33 0.44 0.35 0.09 0.05 0.06 0.04 0.18 0.30 0.27 0.43 0.54 0.48
0.00 0.00 0.00 0.01 0.03 0.03 0.11 0.18 0.26 0.39 0.42 0.26 0.12 0.16 0.24 0.21 0.40 0.18 0.15 0.31 0.51 0.55
0.00 0.00 0.00 0.00 0.00 0.02 0.15 0.15 0.09 0.26 0.27 0.16 0.09 0.12 0.15 0.18 0.20 0.11 0.13 0.26 0.45 0.27
0.00 0.00 0.00 0.00 0.00 0.00 0.01 0.04 0.10 0.24 0.29 0.32 0.16 0.14 0.16 0.20 0.30 0.15 0.11 0.12 0.16 0.36
0.00 0.00 0.00 0.00 0.00 0.00 0.00 0.00 0.01 0.02 0.05 0.14 0.10 0.01 0.01 0.03 0.05 0.04 0.04 0.06 0.06 0.09
0.00 0.00 0.00 0.00 0.00 0.00 0.00 0.00 0.00 0.01 0.00 0.00 0.00 0.00 0.00 0.01 0.02 0.03 0.05 0.08 0.09 0.07
0.00 0.00 0.00 0.00 0.00 0.00 0.00 0.00 0.00 0.00 0.00 0.00 0.00 0.00 0.00 0.00 0.01 0.01 0.01 0.04 0.06 0.05
0.00 0.00 0.00 0.00 0.00 0.00 0.00 0.00 0.00 0.00 0.00 0.01 0.01 0.00 0.00 0.01 0.00 0.00 0.00 0.01 0.04 0.08
0.00 0.00 0.00 0.00 0.00 0.00 0.00 0.00 0.00 0.01 0.02 0.01 0.01 0.00 0.00 0.02 0.01 0.00 0.00 0.00 0.01 0.04
0.00 0.00 0.00 0.00 0.00 0.01 0.01 0.00 0.01 0.02 0.02 0.02 0.01 0.00 0.00 0.00 0.00 0.00 0.00 0.00 0.00 0.01
0.00 0.01 0.00 0.00 0.01 0.02 0.01 0.01 0.02 0.02 0.02 0.03 0.01 0.01 0.00 0.01 0.00 0.00 0.00 0.00 0.02 0.09
0.00 0.01 0.00 0.01 0.02 0.01 0.01 0.01 0.01 0.01 0.01 0.01 0.02 0.01 0.00 0.01 0.00 0.00 0.00 0.02 0.19 0.36